Content
SEND FEEDBACK

Daily
Averages
Monthly
Summary
United States of America

PLACERVILLE, COLORADO


Home > North America > United States > Colorado
Elevation: 8295 feet     Latitude: 38 02N     Longitude: 108 04W

WEATHER
 
SELECT A DAY
Number of Records: 307,413;   Date Range: 1/1/95 - 11/21/14
 
SHARE

PRINT THIS DATA

[ ← Previous Day ]
WEATHER ALMANAC - JANUARY 31, 2013
[ Next Day → ]
[ °C ]   °F
Weather ElementAverageHighLow
Temperature24.4 °F33.8 °F (2:15 pm)17.6 °F (11:15 pm)
Dewpoint17.4 °F21.2 °F (12:35 am)10.4 °F (2:35 pm)
Humidity77.5 %100 % (12:35 am)41 % (2:35 pm)
Barometer30.23 in30.31 in (10:35 am)30.14 in (12:35 am)
Wind Speed3.8 mph11.5 mph (5:15 am)
Wind Gust16.1 mph (6:35 am)
Weather ElementAverage
Visibility7.6 mi
Wind DirectionESE (120.7 °)

Weather ElementTotal
Precipitation0.26 in
Heating Degree Days39.3 (Base 65)
Averaged from 71 records on January 31, 2013
WEATHER CONDITIONS BREAKOUT
WIND DIRECTION BREAKOUT
WEATHER BY HOUR - JANUARY 31, 2013
[ °C ]   °F
Local TimeTemperatureDewpointHumidityBarometerVisibilityWind DirectionWind SpeedGust SpeedPrecipitationEventsConditions
12:35 AM21.2 °F21.2 °F100 %30.14 in3.0 miWest (260°)5.8 mphSnowLight Snow
12:55 AM21.2 °F21.2 °F100 %30.15 in1.8 miWest (260°)8.1 mphSnowLight Snow
1:15 AM21.2 °F21.2 °F100 %30.15 in1.8 miWest (260°)5.8 mphSnowLight Snow
1:35 AM21.2 °F21.2 °F100 %30.15 in1.8 miWSW (250°)4.6 mphSnowLight Snow
1:55 AM21.2 °F21.2 °F100 %30.14 in1.8 miWSW (240°)4.6 mphSnowLight Snow
2:15 AM21.2 °F21.2 °F100 %30.16 in1.8 miWSW (240°)5.8 mphSnowLight Snow
2:35 AM21.2 °F21.2 °F100 %30.16 in2.0 miWSW (240°)4.6 mphSnowLight Snow
2:55 AM21.2 °F21.2 °F100 %30.16 in2.5 miWest (260°)8.1 mphSnowLight Snow
3:15 AM23.0 °F21.2 °F93 %30.16 in1.5 miWest (260°)9.2 mphSnowLight Snow
3:35 AM21.2 °F21.2 °F100 %30.16 in1.5 miWest (260°)9.2 mphSnowLight Snow
3:55 AM21.2 °F21.2 °F100 %30.16 in1.5 miWest (260°)8.1 mphSnowLight Snow
4:15 AM23.0 °F21.2 °F93 %30.18 in1.8 miWest (260°)9.2 mphSnowLight Snow
4:35 AM23.0 °F21.2 °F93 %30.18 in1.5 miWest (260°)10.4 mphSnowLight Snow
4:55 AM23.0 °F21.2 °F93 %30.19 in2.0 miWest (260°)9.2 mphSnowLight Snow
5:15 AM23.0 °F21.2 °F93 %30.18 in3.0 miWSW (250°)11.5 mphSnowLight Snow
5:35 AM21.2 °F21.2 °F100 %30.18 in7.0 miWest (260°)9.2 mphSnowLight Snow
5:55 AM23.0 °F21.2 °F93 %30.18 in7.0 miWest (280°)4.6 mphSnowLight Snow
6:15 AM23.0 °F21.2 °F93 %30.19 in10.0 miWest (270°)8.1 mphSnowLight Snow
6:35 AM21.2 °F21.2 °F100 %30.20 in7.0 miWest (260°)9.2 mph16.1 mphSnowLight Snow
6:55 AM21.2 °F19.4 °F93 %30.20 in4.0 miSE (130°)4.6 mphSnowLight Snow
7:15 AM19.4 °F19.4 °F100 %30.21 in4.0 miCalmSnowLight Snow
7:35 AM21.2 °F19.4 °F93 %30.23 in3.0 miCalmSnowLight Snow
7:55 AM19.4 °F17.6 °F93 %30.24 in7.0 miCalmSnowLight Snow
8:15 AM19.4 °F17.6 °F93 %30.25 in10.0 miCalmSnowLight Snow
8:35 AM21.2 °F19.4 °F93 %30.26 in3.0 miESE (120°)4.6 mphSnowLight Snow
8:55 AM21.2 °F19.4 °F93 %30.27 in3.0 miCalmSnowLight Snow
9:15 AM23.0 °F17.6 °F80 %30.27 in5.0 miCalmSnowLight Snow
9:35 AM23.0 °F17.6 °F80 %30.27 in10.0 miCalmScattered Clouds
9:55 AM24.8 °F15.8 °F69 %30.28 in10.0 miCalmClear
10:15 AM24.8 °F19.4 °F80 %30.30 in10.0 miCalmClear
10:35 AM26.6 °F17.6 °F69 %30.31 in10.0 miCalmClear
10:55 AM26.6 °F17.6 °F69 %30.30 in10.0 miCalmClear
11:15 AM26.6 °F15.8 °F64 %30.29 in10.0 miCalmClear
11:35 AM28.4 °F15.8 °F59 %30.29 in10.0 miCalmClear
11:55 AM28.4 °F15.8 °F59 %30.27 in10.0 miCalmClear
12:15 PM28.4 °F15.8 °F59 %30.26 in10.0 miCalmClear
12:35 PM30.2 °F15.8 °F55 %30.25 in10.0 miCalm0.02 inClear
12:55 PM30.2 °F14.0 °F51 %30.24 in10.0 miCalm0.09 inClear
1:15 PM30.2 °F14.0 °F51 %30.24 in10.0 miCalm0.05 inClear
1:35 PM32.0 °F15.8 °F51 %30.23 in10.0 miCalm0.05 inClear
1:55 PM32.0 °F14.0 °F48 %30.23 in10.0 miCalm0.05 inClear
2:15 PM33.8 °F14.0 °F44 %30.23 in10.0 miCalmClear
2:35 PM32.0 °F10.4 °F41 %30.23 in10.0 miWest (260°)6.9 mphClear
2:55 PM32.0 °F15.8 °F51 %30.23 in10.0 miWSW (250°)4.6 mphClear
3:15 PM32.0 °F12.2 °F44 %30.23 in10.0 miCalmClear
3:35 PM32.0 °F14.0 °F48 %30.23 in10.0 miCalmClear
3:55 PM32.0 °F14.0 °F48 %30.22 in10.0 miCalmClear
4:15 PM32.0 °F14.0 °F48 %30.23 in10.0 miCalmClear
4:35 PM32.0 °F14.0 °F48 %30.23 in10.0 miSW (230°)4.6 mphClear
4:55 PM32.0 °F15.8 °F51 %30.24 in10.0 miWSW (250°)3.5 mphClear
5:15 PM30.2 °F15.8 °F55 %30.24 in10.0 miWSW (240°)5.8 mphClear
5:35 PM28.4 °F15.8 °F59 %30.24 in10.0 miWSW (250°)4.6 mphClear
5:55 PM28.4 °F17.6 °F64 %30.25 in10.0 miWSW (240°)4.6 mphClear
6:15 PM26.6 °F17.6 °F69 %30.26 in10.0 miWSW (240°)3.5 mphClear
6:35 PM26.6 °F19.4 °F74 %30.26 in10.0 miCalmClear
6:55 PM23.0 °F17.6 °F80 %30.27 in10.0 miCalmClear
7:15 PM24.8 °F19.4 °F80 %30.27 in10.0 miCalmClear
7:35 PM21.2 °F15.8 °F80 %30.27 in10.0 miCalmClear
7:55 PM23.0 °F17.6 °F80 %30.28 in10.0 miEast (100°)3.5 mphClear
8:15 PM21.2 °F17.6 °F86 %30.27 in10.0 miESE (120°)4.6 mphClear
8:35 PM21.2 °F17.6 °F86 %30.27 in10.0 miESE (120°)8.1 mphClear
8:55 PM21.2 °F15.8 °F80 %30.28 in10.0 miESE (110°)5.8 mphClear
9:15 PM21.2 °F15.8 °F80 %30.28 in10.0 miESE (110°)5.8 mphClear
9:35 PM21.2 °F15.8 °F80 %30.27 in10.0 miESE (120°)5.8 mphClear
9:55 PM19.4 °F15.8 °F86 %30.28 in10.0 miEast (100°)5.8 mphClear
10:15 PM19.4 °F14.0 °F80 %30.29 in10.0 miEast (100°)3.5 mphClear
10:35 PM19.4 °F14.0 °F80 %30.29 in10.0 miESE (120°)6.9 mphClear
10:55 PM19.4 °F14.0 °F80 %30.29 in10.0 miSE (130°)6.9 mphClear
11:15 PM17.6 °F14.0 °F86 %30.29 in10.0 miSE (130°)8.1 mphClear
11:35 PM17.6 °F12.2 °F79 %30.29 in10.0 miESE (110°)5.8 mphClear
11:55 PM17.6 °F14.0 °F86 %30.28 in10.0 miEast (100°)5.8 mphClear
Hourly data recorded from KTEX, located miles away from Placerville, Colorado







STORIES FROM OUR PARTNERS